TimeEDT,TemperatureF,Dew PointF,Humidity,Sea Level PressureIn,VisibilityMPH,Wind Direction,Wind SpeedMPH,Gust SpeedMPH,PrecipitationIn,Events,Conditions,WindDirDegrees,DateUTC
12:53 AM,53.1,37.0,55,30.10,10.0,NNW,4.6,-,N/A,,Clear,330,2014-05-18 04:53:00
1:53 AM,54.0,36.0,51,30.09,10.0,NNW,4.6,-,N/A,,Clear,340,2014-05-18 05:53:00
2:53 AM,52.0,37.0,57,30.10,10.0,Calm,Calm,-,N/A,,Clear,0,2014-05-18 06:53:00
3:53 AM,50.0,37.0,61,30.11,10.0,North,4.6,-,N/A,,Clear,10,2014-05-18 07:53:00
4:53 AM,50.0,37.0,61,30.12,10.0,North,4.6,-,N/A,,Clear,350,2014-05-18 08:53:00
5:53 AM,50.0,37.4,62,30.10,10.0,North,9.2,-,N/A,,Scattered Clouds,360,2014-05-18 09:53:00
6:53 AM,52.0,39.9,63,30.14,10.0,NNW,8.1,-,N/A,,Partly Cloudy,340,2014-05-18 10:53:00
7:53 AM,54.0,39.9,59,30.14,10.0,NNW,9.2,-,N/A,,Partly Cloudy,340,2014-05-18 11:53:00
8:53 AM,59.0,37.9,46,30.14,10.0,NNW,11.5,-,N/A,,Scattered Clouds,330,2014-05-18 12:53:00
9:53 AM,60.1,37.9,44,30.14,10.0,NW,11.5,17.3,N/A,,Mostly Cloudy,320,2014-05-18 13:53:00
10:53 AM,64.0,36.0,35,30.13,10.0,NNW,13.8,-,N/A,,Scattered Clouds,340,2014-05-18 14:53:00
11:53 AM,64.9,37.0,36,30.11,10.0,NW,10.4,-,N/A,,Partly Cloudy,310,2014-05-18 15:53:00
12:53 PM,66.9,35.1,31,30.09,10.0,Variable,6.9,-,N/A,,Scattered Clouds,0,2014-05-18 16:53:00
1:53 PM,69.1,32.0,25,30.08,10.0,NNW,11.5,16.1,N/A,,Mostly Cloudy,330,2014-05-18 17:53:00
2:53 PM,70.0,30.9,24,30.06,10.0,NNW,15.0,19.6,N/A,,Mostly Cloudy,330,2014-05-18 18:53:00
3:53 PM,68.0,28.9,23,30.04,10.0,NW,6.9,-,N/A,,Scattered Clouds,320,2014-05-18 19:53:00
4:53 PM,70.0,28.9,22,30.04,10.0,North,12.7,21.9,N/A,,Mostly Cloudy,350,2014-05-18 20:53:00
5:53 PM,66.9,28.9,24,30.04,10.0,NW,10.4,-,N/A,,Mostly Cloudy,320,2014-05-18 21:53:00
6:53 PM,68.0,28.9,23,30.04,10.0,NNW,13.8,20.7,N/A,,Mostly Cloudy,330,2014-05-18 22:53:00
7:53 PM,66.0,28.0,24,30.06,10.0,NNW,10.4,21.9,N/A,,Mostly Cloudy,330,2014-05-18 23:53:00
8:53 PM,63.0,26.1,25,30.07,10.0,NW,13.8,-,N/A,,Mostly Cloudy,320,2014-05-19 00:53:00
9:53 PM,61.0,28.0,29,30.09,10.0,NW,11.5,18.4,N/A,,Mostly Cloudy,320,2014-05-19 01:53:00
10:53 PM,57.9,28.9,33,30.09,10.0,NNW,11.5,-,N/A,,Scattered Clouds,330,2014-05-19 02:53:00
11:53 PM,57.0,30.0,36,30.10,10.0,NNW,11.5,-,N/A,,Partly Cloudy,330,2014-05-19 03:53:00